Jerome, ID

1:33 PM MDT on July 26, 2017 (GMT -0600)
Jerome County

Weather History for KJER - January, 2013

Change the Weather History Date:

Thursday, January 24, 2013

  Actual Average Record
Temperature  
Mean Temperature 33 °F 27 °F  
Max Temperature 40 °F 34 °F 53 °F (2003)
Min Temperature 26 °F 20 °F -10 °F (1962)
Degree Days  
Heating Degree Days 32 38  
Month to date heating degree days 1205 930  
Since 1 July heating degree days 3484 3660  
Cooling Degree Days 0 0  
Month to date cooling degree days 0 0  
Year to date cooling degree days 0 0  
Moisture  
Dew Point 30 °F    
Average Humidity 83    
Maximum Humidity 96    
Minimum Humidity 69    
Precipitation  
Precipitation 0.06 in 0.02 in 0.39 in (1958)
Month to date precipitation 0.10 0.90  
Year to date precipitation 0.10 0.90  
Sea Level Pressure  
Sea Level Pressure 30.26 in    
Wind  
Wind Speed 6 mph (ESE)    
Max Wind Speed 18 mph    
Max Gust Speed 23 mph    
Visibility 10 miles    
Events Rain    
T = Trace of Precipitation, MM = Missing Value Source: NWS Daily Summary

Daily Weather History Graph

Daily Weather History Graph

Search for Another Location

Airport or City:

Trip Planner

Search our weather history database for the weather conditions in past years. The results will help you decide how hot, cold, wet, or windy it might be!

Date:

Astronomy

Jan. 24, 2013 Rise Set
Actual Time 7:59 AM MST 5:41 PM MST
Civil Twilight 7:28 AM MST 6:11 PM MST
Nautical Twilight 6:54 AM MST 6:46 PM MST
Astronomical Twilight 6:21 AM MST 7:19 PM MST
Moon 3:46 PM MST (1/24) 6:00 AM MST (1/24)
Length of Visible Light 10h 42m
Length of Day
9h 41m
Waxing Gibbous, 95% of the Moon is Illuminated
Jan 24
Waxing Gibbous
Jan 26
Full
Feb 3
Last Quarter
Feb 10
New
Feb 17
First Quarter

Hourly Weather History & Observations

Time (MST) Temp. Windchill Dew Point Humidity Pressure Visibility Wind Dir Wind Speed Gust Speed Precip Events Conditions
12:53 AM 28.0 °F 16.5 °F 19.9 °F 72% 30.22 in 10.0 mi NE 15.0 mph - N/A   Overcast
1:53 AM 28.0 °F 16.5 °F 19.0 °F 69% 30.22 in 10.0 mi NE 15.0 mph - N/A   Partly Cloudy
2:53 AM 28.9 °F 18.6 °F 19.9 °F 69% 30.23 in 10.0 mi NE 12.7 mph - N/A   Overcast
3:53 AM 27.0 °F - 21.9 °F 81% 30.26 in 10.0 mi Calm Calm - N/A   Overcast
4:53 AM 28.9 °F - 21.9 °F 75% 30.26 in 10.0 mi Calm Calm - N/A   Overcast
5:53 AM 30.0 °F 25.2 °F 24.1 °F 79% 30.27 in 10.0 mi East 4.6 mph - 0.00 in   Overcast
6:34 AM 32.0 °F 28.7 °F 24.8 °F 75% 30.20 in 10.0 mi SSE 3.5 mph - 0.01 in   Overcast
6:53 AM 32.0 °F 28.7 °F 26.1 °F 79% 30.29 in 10.0 mi ESE 3.5 mph - 0.01 in   Overcast
7:15 AM 32.0 °F - 26.6 °F 80% 30.21 in 10.0 mi Calm Calm - 0.01 in Rain Light Freezing Rain
7:53 AM 32.0 °F 27.5 °F 28.9 °F 88% 30.29 in 10.0 mi East 4.6 mph - 0.02 in Rain Light Freezing Rain
8:20 AM 32.0 °F 27.5 °F 30.2 °F 93% 30.20 in 9.0 mi ESE 4.6 mph - 0.01 in Rain Light Freezing Rain
8:34 AM 33.8 °F 29.6 °F 30.2 °F 87% 30.21 in 10.0 mi ESE 4.6 mph - 0.01 in Rain Light Rain
8:44 AM 33.8 °F 29.6 °F 30.2 °F 87% 30.21 in 10.0 mi ESE 4.6 mph - 0.01 in Rain Light Rain
8:53 AM 33.1 °F 28.7 °F 30.0 °F 89% 30.28 in 10.0 mi ESE 4.6 mph - 0.02 in Rain Light Rain
9:48 AM 33.8 °F 30.8 °F 32.0 °F 93% 30.23 in 9.0 mi ESE 3.5 mph - 0.01 in Rain Light Rain
9:53 AM 33.1 °F 27.7 °F 32.0 °F 96% 30.31 in 8.0 mi ESE 5.8 mph - 0.01 in Rain Light Rain
10:53 AM 34.0 °F 26.6 °F 32.0 °F 92% 30.30 in 10.0 mi East 9.2 mph - 0.00 in   Overcast
11:22 AM 33.8 °F 25.8 °F 32.0 °F 93% 30.23 in 10.0 mi ESE 10.4 mph - N/A   Mostly Cloudy
11:53 AM 35.1 °F 27.9 °F 33.1 °F 92% 30.29 in 10.0 mi East 9.2 mph - N/A   Mostly Cloudy
12:25 PM 37.4 °F 32.1 °F 33.8 °F 87% 30.22 in 10.0 mi ESE 6.9 mph - N/A   Overcast
12:53 PM 37.9 °F 34.4 °F 34.0 °F 86% 30.29 in 10.0 mi SSE 4.6 mph - N/A   Overcast
1:53 PM 37.9 °F 34.4 °F 35.1 °F 89% 30.28 in 10.0 mi WSW 4.6 mph - N/A   Overcast
2:17 PM 39.2 °F 35.9 °F 35.6 °F 87% 30.21 in 10.0 mi SW 4.6 mph - N/A   Mostly Cloudy
2:53 PM 39.9 °F 36.7 °F 35.1 °F 83% 30.27 in 10.0 mi West 4.6 mph - N/A   Scattered Clouds
3:04 PM 37.4 °F 33.8 °F 35.6 °F 93% 30.22 in 10.0 mi WSW 4.6 mph - N/A   Mostly Cloudy
3:12 PM 37.4 °F 33.8 °F 33.8 °F 87% 30.22 in 10.0 mi SW 4.6 mph - N/A   Mostly Cloudy
3:53 PM 39.0 °F - 35.1 °F 86% 30.28 in 10.0 mi Calm Calm - N/A   Overcast
4:53 PM 36.0 °F 33.3 °F 33.1 °F 89% 30.30 in 10.0 mi South 3.5 mph - N/A   Clear
5:53 PM 34.0 °F 31.0 °F 32.0 °F 92% 30.30 in 10.0 mi ESE 3.5 mph - N/A   Clear
6:53 PM 35.1 °F 30.1 °F 33.1 °F 92% 30.31 in 10.0 mi ENE 5.8 mph - N/A   Overcast
7:39 PM 35.6 °F - 33.8 °F 93% 30.25 in 10.0 mi Calm Calm - N/A   Overcast
7:53 PM 35.1 °F 30.1 °F 33.1 °F 92% 30.32 in 10.0 mi NNE 5.8 mph - N/A   Overcast
8:53 PM 35.1 °F 28.6 °F 33.1 °F 92% 30.32 in 9.0 mi NNE 8.1 mph - N/A   Overcast
9:26 PM 35.6 °F 31.7 °F 33.8 °F 93% 30.25 in 10.0 mi NNE 4.6 mph - N/A   Overcast
9:53 PM 36.0 °F - 33.1 °F 89% 30.31 in 10.0 mi Calm Calm - N/A   Overcast
10:53 PM 34.0 °F 28.8 °F 32.0 °F 92% 30.33 in 10.0 mi East 5.8 mph - N/A   Overcast
11:53 PM 34.0 °F 27.2 °F 32.0 °F 92% 30.33 in 10.0 mi NE 8.1 mph - N/A   Overcast